Pagrindinis puslapis
METAR-TAF:

METAR-TAF

Oro uostai :

Clines Corners, Naujoji Meksika, Jungtinės Amerikos Valstijos

platuma: 35-00N, ilguma: 105-40W, Aukštis: 2160 m

Dabartinis oras

Ataskaita buvo paskelbta 10 minutes, ne 04:53 UTC
Vėjas 10 kt iš Pietų
Temperatūra 11°C
Drėgmė 71%
Slėgis 1024 hPa
Matomumas: 16.1 km
Giedras dangus

METAR: KCQC 140453Z AUTO 17010KT 10SM CLR 11/06 A3025 RMK AO2 SLP174 T01110061

Laikas: 23:03 (05:03 UTC)


TAF: trūkstamas

Orai ataskaitas ir orų prognozės (METAR, TAF).

turimą stotys yra geltonos ir raudonos taškus žemėlapyje.

Perkelti pele per norėdami pamatyti stoties vardą.

Tada spustelėkite, norėdami matyti oro stebėjimo ir prognozės.

Norėdami pakeisti žemėlapį: spustelėkite ant žalios mygtukų su juodo kryžiaus žemyn,; žalią mygtuką su brūkšneliu, jei norite nutolinti; arba žalių rodyklių gretimoms žemėlapius.


METAR-TAF: